Location: Kerentrech
(47.7567°N, 3.3595°W)
Time: 04:18:47
(UTC+00:00)

Lacrosse 5 - Pass Details

Date: 17 February 2020
Orbit: 715 x 724 km, 57.0° (Epoch: 21 March)

Event Time Altitude Azimuth Distance (km) Brightness Sun altitude
Exits shadow 06:17:48 13° 293° (WNW) 2,012 3.6 -10.6°
Maximum altitude 06:21:53 37° 230° (SW) 1,114 2.5 -9.9°
Drops below altitude 10° 06:26:31 10° 164° (SSE) 2,203 4.7 -9.1°
Sets 06:29:02 0° 156° (SSE) 3,121 5.7 -8.7°
